Temp
-10 -11 -12 -12 -13 -13 -13 -13 -13 -13 -13 -14 -14 -14 -14 -14 -14 -14 -14 -13 -14 -14 -14 -14 -14 -14 -14 -14 -14 -14 -14 -14 -14 -14 -13 -14 -14 -14 -14 -14 -14 -14 -14
-11 -12 -12 -13 -13 -13 -13 -13 -13 -13 -14 -14 -13 -13 -13 -13 -14 -13 -13 -14 -14 -14 -14 -14 -14 -14 -14 -14 -14 -14 -14 -14 -14 -14 -14 -14 -14 -14 -15 -14 -14 -14 -14
-12 -12 -12 -13 -13 -13 -13 -13 -13 -13 -13 -13 -13 -13 -13 -13 -13 -13 -13 -14 -14 -14 -14 -14 -14 -14 -14 -14 -14 -14 -14 -14 -14 -14 -14 -14 -14 -14 -14 -15 -14 -15 -15
-12 -12 -12 -13 -13 -13 -13 -13 -13 -13 -13 -13 -13 -13 -13 -13 -13 -13 -13 -13 -13 -13 -13 -14 -14 -14 -14 -14 -14 -14 -14 -14 -14 -14 -14 -13 -14 -15 -15 -15 -15 -15 -15
-13 -13 -13 -13 -13 -13 -13 -13 -13 -13 -12 -12 -13 -13 -13 -13 -13 -13 -13 -13 -13 -13 -13 -13 -13 -13 -14 -14 -14 -14 -14 -14 -14 -14 -14 -14 -14 -14 -14 -14 -15 -15 -16
-13 -13 -12 -12 -12 -12 -12 -12 -12 -12 -12 -12 -13 -13 -13 -13 -13 -13 -13 -13 -13 -13 -13 -13 -13 -13 -13 -14 -14 -14 -14 -14 -14 -14 -14 -14 -14 -15 -14 -14 -14 -15 -15
-13 -12 -12 -12 -12 -12 -12 -12 -12 -12 -12 -13 -13 -13 -13 -13 -13 -13 -13 -13 -13 -13 -13 -13 -13 -13 -13 -13 -13 -14 -14 -14 -14 -14 -14 -14 -14 -14 -14 -14 -15 -15 -14
-12 -12 -12 -12 -12 -12 -12 -12 -13 -13 -13 -13 -13 -13 -13 -13 -13 -13 -13 -14 -14 -14 -14 -14 -14 -14 -14 -14 -14 -14 -14 -14 -14 -14 -14 -15 -15 -14 -14 -14 -15 -14 -14
-12 -12 -12 -12 -12 -12 -13 -13 -13 -13 -13 -13 -13 -13 -13 -13 -13 -13 -13 -14 -14 -14 -14 -14 -14 -14 -14 -14 -14 -14 -14 -14 -14 -14 -14 -14 -15 -15 -15 -15 -14 -14 -14
-12 -12 -12 -12 -12 -12 -12 -12 -12 -13 -13 -13 -13 -13 -13 -14 -14 -14 -14 -14 -14 -14 -14 -14 -14 -14 -14 -14 -14 -14 -14 -14 -14 -14 -14 -14 -14 -14 -14 -14 -14 -14 -14
-12 -12 -13 -12 -12 -12 -12 -12 -13 -13 -13 -13 -13 -14 -14 -14 -14 -14 -15 -15 -15 -15 -15 -15 -14 -14 -14 -14 -14 -14 -14 -14 -14 -14 -14 -14 -14 -14 -14 -14 -14 -14 -14
-12 -12 -12 -12 -12 -13 -13 -13 -13 -13 -13 -13 -14 -14 -14 -15 -15 -15 -15 -15 -15 -15 -15 -14 -14 -14 -14 -14 -14 -14 -14 -14 -14 -14 -14 -14 -14 -14 -14 -14 -14 -14 -14
-12 -13 -13 -12 -13 -13 -13 -13 -14 -14 -14 -14 -14 -14 -14 -14 -14 -15 -15 -15 -15 -15 -15 -15 -14 -14 -14 -14 -14 -14 -14 -14 -14 -14 -14 -14 -14 -14 -14 -14 -14 -14 -14
-13 -13 -13 -13 -13 -13 -13 -13 -13 -13 -14 -14 -14 -14 -14 -15 -15 -15 -15 -15 -15 -14 -14 -14 -14 -14 -14 -14 -14 -14 -14 -14 -14 -14 -14 -14 -14 -14 -14 -14 -14 -14 -14
-13 -13 -12 -12 -13 -13 -13 -13 -14 -14 -14 -14 -15 -15 -15 -15 -15 -15 -15 -15 -15 -15 -14 -14 -14 -14 -14 -14 -14 -14 -14 -14 -14 -13 -13 -13 -14 -14 -14 -14 -14 -14 -14
-13 -12 -12 -14 -15 -15 -15 -15 -15 -15 -15 -15 -15 -15 -15 -15 -15 -15 -15 -15 -15 -15 -14 -14 -14 -14 -14 -14 -14 -14 -14 -14 -14 -14 -14 -14 -15 -14 -14 -14 -14 -14 -15
-13 -12 -13 -14 -15 -15 -15 -15 -15 -16 -15 -15 -15 -15 -15 -15 -15 -15 -15 -15 -15 -15 -14 -14 -14 -13 -13 -13 -14 -14 -14 -14 -14 -14 -14 -14 -14 -15 -15 -16 -15 -15 -14
-13 -13 -12 -14 -14 -14 -15 -15 -16 -16 -16 -15 -15 -14 -15 -15 -16 -16 -15 -15 -14 -14 -14 -14 -14 -14 -14 -14 -14 -14 -14 -14 -14 -14 -15 -15 -14 -15 -14 -15 -15 -15 -16
-14 -13 -13 -14 -15 -15 -15 -16 -15 -15 -15 -16 -15 -15 -15 -15 -15 -15 -16 -15 -15 -15 -15 -15 -15 -15 -15 -15 -15 -15 -15 -15 -15 -14 -14 -15 -15 -15 -15 -15 -15 -15 -15
-14 -14 -13 -13 -14 -15 -15 -15 -15 -15 -16 -16 -16 -16 -16 -15 -15 -16 -15 -15 -15 -15 -15 -16 -16 -15 -16 -15 -15 -15 -15 -15 -15 -15 -15 -15 -15 -15 -15 -15 -16 -15 -15
-15 -15 -15 -15 -15 -15 -15 -15 -16 -16 -16 -16 -16 -16 -16 -15 -16 -16 -16 -16 -16 -16 -16 -16 -16 -16 -16 -16 -16 -16 -15 -16 -16 -16 -16 -16 -16 -15 -15 -16 -15 -15 -16
-15 -15 -16 -16 -16 -16 -16 -16 -17 -17 -17 -17 -17 -16 -16 -16 -16 -16 -16 -15 -16 -16 -16 -16 -16 -16 -17 -17 -17 -17 -16 -17 -17 -18 -18 -18 -17 -17 -17 -17 -16 -16 -16
-15 -15 -16 -16 -16 -16 -16 -16 -17 -17 -17 -17 -17 -16 -16 -16 -16 -16 -16 -16 -16 -16 -16 -17 -17 -18 -18 -19 -20 -19 -19 -18 -18 -19 -20 -20 -20 -20 -20 -20 -19 -19 -19
-16 -16 -16 -16 -16 -17 -17 -17 -17 -17 -17 -16 -16 -17 -17 -17 -17 -17 -17 -17 -17 -18 -18 -18 -18 -19 -19 -20 -21 -22 -22 -21 -20 -19 -21 -21 -22 -22 -22 -22 -22 -22 -22
-16 -16 -16 -16 -16 -16 -17 -17 -17 -17 -17 -17 -17 -17 -17 -18 -18 -18 -18 -18 -19 -19 -19 -20 -20 -21 -21 -22 -22 -22 -22 -23 -23 -22 -21 -21 -22 -23 -24 -24 -23 -23 -23
-16 -17 -17 -17 -17 -16 -16 -16 -16 -16 -17 -17 -17 -17 -17 -18 -18 -19 -19 -19 -20 -20 -21 -22 -22 -22 -22 -22 -22 -22 -22 -22 -23 -23 -23 -22 -22 -23 -24 -24 -25 -25 -24
Height
5864 5865 5864 5862 5861 5859 5858 5856 5854 5853 5852 5850 5849 5848 5847 5845 5844 5843 5841 5839 5839 5837 5836 5835 5832 5831 5831 5830 5831 5828 5829 5829 5828 5826 5823 5826 5823 5822 5824 5825 5827 5827 5828
5862 5860 5859 5858 5858 5856 5853 5853 5851 5851 5850 5849 5848 5846 5844 5843 5842 5841 5840 5838 5836 5835 5834 5832 5831 5830 5830 5830 5829 5828 5825 5823 5823 5823 5824 5823 5822 5820 5817 5818 5819 5822 5824
5858 5857 5857 5856 5854 5853 5851 5850 5850 5849 5848 5847 5846 5844 5842 5840 5839 5838 5837 5834 5834 5833 5831 5830 5829 5828 5826 5826 5826 5826 5825 5823 5821 5819 5817 5820 5820 5816 5814 5814 5815 5814 5816
5855 5855 5854 5853 5852 5850 5849 5848 5847 5846 5845 5844 5843 5843 5841 5840 5839 5837 5836 5835 5833 5832 5830 5829 5828 5826 5825 5824 5823 5822 5821 5820 5821 5818 5816 5817 5816 5816 5813 5812 5813 5816 5817
5853 5852 5851 5850 5849 5848 5847 5846 5846 5845 5845 5845 5844 5843 5841 5840 5838 5837 5836 5833 5833 5832 5831 5828 5827 5825 5823 5821 5820 5819 5819 5819 5817 5815 5814 5814 5814 5812 5812 5814 5811 5808 5814
5852 5851 5850 5849 5848 5847 5846 5846 5846 5846 5845 5844 5843 5842 5840 5838 5837 5835 5834 5833 5831 5830 5829 5827 5826 5824 5823 5821 5819 5817 5816 5815 5814 5812 5813 5811 5811 5810 5809 5808 5809 5801 5801
5849 5849 5848 5849 5848 5847 5848 5846 5846 5846 5846 5845 5843 5842 5839 5837 5835 5834 5833 5832 5830 5828 5826 5826 5824 5822 5821 5819 5818 5816 5814 5812 5811 5811 5810 5808 5808 5808 5808 5806 5805 5801 5802
5847 5849 5849 5847 5848 5847 5847 5847 5846 5845 5844 5843 5842 5839 5837 5835 5834 5832 5832 5829 5828 5825 5824 5823 5822 5820 5818 5817 5815 5814 5812 5810 5808 5808 5808 5806 5804 5803 5804 5803 5804 5803 5803
5847 5848 5848 5848 5848 5847 5847 5845 5844 5843 5842 5841 5837 5836 5834 5833 5830 5829 5828 5826 5824 5822 5821 5819 5818 5816 5815 5813 5811 5810 5808 5807 5805 5803 5804 5803 5801 5799 5799 5798 5798 5799 5798
5847 5847 5848 5847 5846 5846 5844 5844 5842 5840 5838 5836 5835 5832 5830 5829 5826 5825 5823 5821 5818 5818 5816 5813 5812 5811 5810 5807 5806 5804 5803 5802 5800 5798 5799 5798 5795 5794 5793 5792 5792 5792 5793
5847 5847 5846 5844 5844 5842 5842 5840 5839 5837 5836 5833 5831 5828 5827 5825 5823 5820 5817 5815 5813 5811 5809 5807 5806 5804 5803 5801 5800 5798 5796 5796 5794 5793 5794 5794 5792 5790 5789 5787 5787 5787 5786
5844 5846 5844 5842 5842 5840 5838 5837 5836 5834 5832 5828 5826 5823 5821 5820 5818 5816 5813 5810 5808 5805 5803 5800 5798 5797 5795 5793 5792 5791 5789 5788 5787 5785 5786 5786 5785 5784 5784 5784 5784 5782 5781
5842 5840 5838 5838 5837 5838 5838 5834 5831 5828 5826 5822 5819 5818 5816 5813 5810 5807 5806 5804 5802 5799 5797 5794 5792 5789 5788 5785 5783 5782 5782 5781 5779 5778 5779 5778 5778 5775 5775 5775 5775 5776 5776
5838 5838 5836 5835 5834 5832 5829 5827 5826 5823 5820 5817 5815 5813 5811 5807 5804 5801 5798 5796 5794 5792 5788 5787 5785 5783 5781 5779 5777 5775 5773 5772 5772 5770 5770 5770 5770 5768 5767 5767 5766 5766 5766
5836 5838 5835 5834 5832 5830 5827 5822 5818 5816 5812 5810 5809 5807 5804 5802 5798 5795 5792 5788 5785 5782 5779 5777 5776 5774 5772 5771 5770 5770 5768 5765 5763 5761 5760 5760 5760 5759 5758 5757 5757 5758 5757
5831 5833 5832 5831 5823 5822 5823 5818 5814 5811 5807 5805 5803 5801 5797 5796 5790 5787 5784 5780 5777 5774 5771 5769 5767 5766 5764 5762 5760 5759 5758 5757 5756 5753 5752 5750 5749 5749 5749 5748 5747 5747 5747
5827 5829 5824 5821 5818 5813 5815 5815 5810 5807 5801 5798 5797 5793 5790 5788 5781 5778 5774 5771 5767 5764 5761 5759 5757 5755 5753 5752 5750 5748 5746 5745 5744 5743 5741 5739 5739 5738 5736 5736 5736 5736 5736
5824 5825 5818 5812 5808 5796 5806 5806 5803 5798 5794 5790 5786 5782 5781 5778 5775 5769 5764 5760 5757 5755 5753 5750 5747 5744 5741 5737 5735 5733 5731 5730 5729 5729 5728 5726 5725 5723 5722 5723 5722 5721 5722
5821 5821 5820 5811 5808 5804 5803 5799 5793 5791 5787 5782 5776 5771 5767 5763 5761 5759 5756 5751 5747 5744 5740 5737 5735 5731 5728 5725 5723 5721 5720 5717 5715 5713 5712 5711 5709 5708 5709 5708 5708 5708 5708
5817 5815 5816 5813 5805 5800 5796 5792 5788 5784 5779 5773 5768 5763 5759 5754 5751 5747 5742 5739 5735 5731 5728 5725 5721 5717 5713 5709 5708 5707 5704 5702 5699 5697 5694 5691 5691 5690 5691 5691 5691 5691 5691
5812 5809 5808 5806 5802 5796 5790 5785 5781 5775 5770 5765 5759 5754 5748 5744 5741 5736 5732 5727 5722 5719 5714 5709 5704 5700 5697 5689 5687 5687 5685 5682 5681 5678 5674 5670 5668 5668 5669 5670 5670 5671 5673
5808 5806 5803 5799 5794 5788 5783 5779 5775 5768 5763 5756 5750 5744 5739 5735 5730 5726 5719 5713 5708 5703 5699 5693 5686 5683 5676 5666 5662 5660 5662 5663 5660 5657 5652 5646 5647 5648 5646 5645 5647 5649 5650
5803 5799 5795 5791 5786 5780 5775 5771 5765 5760 5755 5749 5742 5736 5729 5722 5714 5708 5702 5697 5691 5684 5678 5672 5666 5660 5655 5647 5636 5632 5631 5631 5634 5637 5632 5623 5623 5623 5622 5621 5621 5622 5624
5794 5791 5787 5782 5778 5773 5767 5761 5756 5750 5745 5739 5733 5726 5718 5710 5702 5693 5686 5679 5673 5665 5658 5650 5644 5637 5630 5625 5618 5609 5602 5599 5602 5608 5610 5604 5600 5599 5598 5597 5599 5599 5601
5789 5784 5778 5771 5765 5761 5759 5756 5750 5742 5736 5729 5721 5713 5704 5696 5688 5680 5671 5664 5654 5645 5637 5628 5620 5613 5607 5601 5596 5589 5585 5575 5568 5568 5581 5582 5578 5576 5575 5573 5573 5577 5580
5780 5774 5768 5762 5756 5750 5746 5740 5736 5732 5725 5718 5710 5701 5692 5681 5670 5659 5649 5639 5630 5620 5611 5603 5595 5588 5582 5576 5570 5562 5555 5553 5546 5538 5538 5548 5549 5551 5549 5548 5547 5551 5555
Wind_Speed
25 24 20 22 21 22 22 19 19 19 16 15 14 15 16 16 17 18 16 14 13 12 11 11 13 13 13 13 17 16 18 20 24 29 31 29 30 29 29 25 26 26 24
20 20 25 23 24 19 17 16 11 9 9 8 6 7 8 9 9 10 10 9 10 9 9 10 12 13 15 14 13 13 15 16 19 20 24 28 29 32 29 27 29 27 26
24 26 25 20 12 10 10 7 6 4 2 4 6 7 8 8 8 7 6 7 8 7 8 9 10 11 10 12 13 14 15 14 15 20 23 21 27 32 36 35 28 25 21
24 20 14 11 9 11 10 8 4 2 1 3 6 9 10 9 8 8 7 7 7 7 7 7 9 9 11 12 13 15 15 14 14 16 18 18 25 28 33 37 41 22 24
14 11 9 8 7 6 4 2 1 2 5 6 5 6 7 8 9 9 9 9 9 9 9 8 8 8 8 9 11 12 14 16 18 18 18 17 20 26 31 33 40 31 22
10 8 5 2 2 4 7 8 8 7 5 2 1 3 4 5 6 6 6 6 7 7 6 7 8 9 8 9 9 9 11 12 13 15 16 18 19 20 23 26 27 26 24
9 7 7 7 8 9 7 7 5 2 1 3 5 6 7 7 7 8 9 9 10 10 11 11 12 13 13 14 13 14 13 14 14 14 14 15 18 18 18 16 14 15 22
10 9 8 7 5 4 3 2 1 4 5 6 7 8 9 10 11 10 12 12 13 13 13 13 14 15 16 17 19 19 19 19 18 18 18 18 20 19 16 17 15 13 17
11 8 6 3 2 2 4 5 6 8 9 12 12 12 13 13 15 16 17 18 19 19 21 22 23 22 22 21 20 20 22 23 24 22 20 20 22 23 22 20 19 17 16
7 5 2 2 3 5 7 10 12 13 14 15 15 16 16 16 19 20 20 20 21 21 21 22 22 21 23 23 24 24 25 24 25 26 24 23 25 24 24 23 21 19 19
2 4 3 4 7 8 10 12 13 16 18 20 19 20 20 20 21 25 25 24 23 22 22 23 25 26 26 27 26 26 27 26 28 29 27 25 26 29 28 27 25 24 23
2 1 4 6 7 11 13 15 16 18 20 23 24 24 24 24 24 23 24 25 26 27 28 30 31 32 33 32 30 29 29 29 28 28 29 30 31 32 31 31 30 29 28
2 5 9 10 12 11 10 15 18 21 21 24 27 27 26 27 28 28 27 27 29 32 33 34 35 36 36 35 33 29 26 28 29 30 30 31 29 32 32 31 31 31 32
6 6 14 14 14 15 18 21 22 22 25 25 26 29 30 31 31 31 32 33 35 36 37 37 36 36 33 30 28 30 30 29 28 28 27 28 29 32 33 33 34 34 34
9 13 18 22 21 21 28 26 25 27 30 32 31 32 33 33 35 35 36 38 39 39 39 38 37 34 33 32 30 29 29 32 32 33 33 33 32 33 35 36 37 37 37
18 19 18 26 27 15 22 25 29 31 34 36 35 36 38 37 40 40 40 40 38 37 36 35 34 34 34 36 36 37 37 36 36 38 38 38 37 36 38 39 40 40 41
22 25 29 20 18 14 21 28 33 32 34 38 40 42 43 41 43 44 43 41 39 38 39 40 41 42 44 44 43 44 44 43 43 42 43 45 43 42 42 41 42 43 44
26 23 29 34 35 16 35 35 36 39 40 43 50 49 47 45 44 46 46 46 45 43 44 45 47 49 52 53 53 53 53 52 52 50 49 49 49 50 50 49 50 49 47
25 26 28 34 35 36 39 40 44 43 46 51 53 54 54 52 48 47 49 51 51 51 52 53 54 57 59 60 61 59 58 57 57 57 57 56 56 56 55 55 56 55 55
28 28 32 35 40 43 46 46 46 49 50 54 55 54 53 52 51 54 56 55 57 58 59 60 63 65 64 64 62 63 64 63 63 64 65 65 63 63 62 61 60 60 60
30 33 36 40 42 45 47 49 51 52 54 55 55 53 53 55 56 57 58 60 62 63 64 66 68 70 70 72 73 73 73 71 69 69 70 70 71 71 70 68 68 67 65
34 38 40 41 44 47 49 50 51 53 53 53 53 56 57 58 60 62 63 65 66 67 69 71 74 75 77 80 81 80 79 75 74 72 70 72 74 75 75 76 75 74 73
38 40 43 44 46 48 49 50 49 48 49 51 54 56 59 62 64 66 68 70 73 76 78 81 82 82 81 78 78 81 82 82 81 75 71 73 73 73 72 73 75 74 75
41 42 44 46 45 45 47 47 47 48 50 53 56 59 60 63 67 72 74 77 80 82 83 85 84 82 81 80 79 81 84 85 83 81 75 74 73 71 71 70 68 62 58
40 43 44 45 46 47 43 43 45 49 53 56 59 63 66 69 72 75 79 81 82 83 82 80 81 80 79 80 81 82 83 84 84 85 79 75 76 75 71 73 73 72 71
39 39 39 40 45 47 48 50 51 53 55 59 64 68 72 75 78 80 82 83 81 80 81 81 81 81 82 83 82 83 84 83 84 85 84 80 79 78 78 77 76 74 74
Wind_Direction
295 295 295 295 290 292 294 290 288 295 295 294 303 300 290 288 282 286 291 299 302 304 293 290 290 284 284 278 274 282 279 270 265 270 268 265 275 281 275 272 276 273 267
287 284 292 294 297 296 290 293 293 294 304 309 312 309 304 300 303 304 312 321 330 331 326 314 302 296 285 283 282 285 289 289 282 272 270 273 274 278 283 272 271 272 270
286 289 297 301 291 297 309 302 296 298 312 323 326 331 324 319 320 328 337 339 335 332 323 322 309 301 295 278 274 277 284 286 295 292 287 275 270 270 272 276 268 276 277
282 292 291 286 293 294 291 277 267 292 348 28 54 46 42 40 33 28 22 16 13 4 352 337 327 312 302 299 290 285 285 281 275 273 278 283 272 270 277 275 281 278 269
282 280 282 280 281 286 286 304 341 50 81 85 60 44 40 40 38 29 22 18 11 13 7 5 359 352 330 310 298 291 288 288 286 283 280 273 269 269 270 270 302 272 276
260 258 251 216 120 81 73 77 85 96 97 101 76 18 359 359 355 350 341 337 336 333 330 328 326 323 317 311 308 301 297 291 286 285 286 277 271 271 273 284 291 284 275
218 198 154 130 103 94 94 96 102 97 18 340 337 334 337 332 326 319 317 312 307 308 309 311 311 310 306 299 298 294 288 284 281 280 277 281 282 281 278 284 290 275 269
172 148 135 124 122 118 109 117 301 324 321 316 317 321 312 313 304 305 301 297 293 295 294 292 292 297 301 299 291 284 282 281 280 279 280 280 280 279 281 282 284 260 258
148 148 146 137 79 347 317 317 326 315 315 310 316 312 305 309 304 307 303 300 297 296 297 295 293 296 296 290 283 279 276 276 278 276 275 279 279 280 279 276 278 274 266
161 131 111 4 318 315 321 321 315 306 309 306 310 305 304 307 306 302 300 298 298 298 296 295 298 303 301 297 290 280 274 271 270 272 273 271 274 274 279 283 280 277 275
124 36 328 303 300 304 309 313 313 316 313 307 307 304 307 307 307 306 304 301 299 298 295 293 296 299 298 295 295 291 284 277 272 269 268 267 269 274 274 273 273 274 275
358 114 251 258 277 302 315 316 313 307 305 305 312 312 308 303 299 299 296 297 297 299 301 299 299 301 303 298 294 293 285 281 277 275 272 267 268 269 269 270 269 266 266
305 290 290 305 303 292 308 313 309 310 312 313 310 311 311 311 310 308 306 304 302 301 300 299 298 298 300 298 296 290 284 281 279 280 280 280 273 270 270 267 263 263 265
277 296 301 304 290 300 306 304 303 305 308 313 314 313 312 313 314 313 309 302 298 297 297 296 294 295 295 294 293 294 292 288 283 279 279 279 278 275 273 268 267 266 263
301 302 309 311 309 308 312 305 311 314 311 311 316 313 311 311 309 307 304 300 299 299 298 295 293 292 293 292 289 284 282 283 282 283 281 277 275 275 275 274 273 270 265
318 315 311 321 292 289 303 319 314 314 311 310 308 309 311 312 306 306 307 304 302 301 299 296 292 291 292 290 288 287 287 282 280 282 280 279 278 273 271 271 272 273 272
316 317 317 322 298 284 322 317 312 316 312 307 308 309 311 314 311 311 309 307 306 307 305 300 294 292 292 292 289 287 284 281 280 281 280 281 280 279 277 273 270 268 267
310 315 312 313 328 319 319 318 317 315 311 307 310 311 313 314 313 311 309 308 306 305 302 299 296 294 293 293 293 293 291 289 287 286 284 282 280 281 279 277 277 276 271
307 311 308 308 311 310 315 315 314 311 309 310 312 314 314 314 312 311 309 307 306 304 301 299 298 296 294 294 294 294 293 290 287 284 284 284 283 280 278 278 277 274 274
303 300 304 308 308 309 309 310 310 309 310 311 312 311 312 311 312 312 309 307 306 302 301 301 298 297 296 294 293 292 290 288 287 287 285 282 279 279 278 277 274 272 271
299 304 306 304 303 304 307 309 310 310 310 310 311 312 311 311 309 308 308 307 303 305 303 301 300 299 298 296 292 291 290 288 285 284 283 281 279 278 275 271 270 269 266
295 298 298 298 299 303 307 308 306 307 309 309 310 309 308 308 308 307 304 303 304 302 300 299 298 297 295 294 292 289 286 284 283 283 280 277 275 274 271 270 268 266 265
290 293 297 299 300 304 304 303 306 307 305 306 306 307 308 308 307 305 303 303 301 300 300 299 297 295 292 290 287 285 283 281 279 279 279 276 274 272 268 265 263 262 261
294 296 298 300 300 299 301 303 304 305 306 305 305 305 306 306 306 305 305 303 301 299 297 295 295 294 290 288 285 285 285 285 281 276 275 275 272 269 266 263 259 257 256
295 299 299 300 301 301 299 299 302 301 302 306 307 308 307 304 302 301 299 298 297 297 297 295 293 289 288 287 287 285 285 285 284 280 274 270 267 265 264 262 261 257 253
298 297 296 295 297 302 307 307 306 306 307 307 308 306 303 301 299 299 300 300 299 297 295 294 293 291 290 288 287 286 285 282 281 280 278 273 267 260 260 259 255 254 254